Time,TemperatureF,DewpointF,PressureIn,WindDirection,WindDirectionDegrees,WindSpeedMPH,WindSpeedGustMPH,Humidity,HourlyPrecipIn,Conditions,Clouds,dailyrainin,SoftwareType,DateUTC
2013-03-29 00:00:00,60.5,40.0,30.31,NNW,337,4.0,4.4,48,0.00,,,0.00,Rainwise IP-100,2013-03-29 04:00:00,
2013-03-29 00:05:00,60.4,41.0,30.31,NNW,337,3.3,6.1,49,0.00,,,0.00,Rainwise IP-100,2013-03-29 04:05:00,
2013-03-29 00:10:00,60.4,41.0,30.31,NNW,337,4.2,4.9,49,0.00,,,0.00,Rainwise IP-100,2013-03-29 04:10:00,
2013-03-29 00:15:00,60.3,41.0,30.31,NNW,337,3.0,5.1,49,0.00,,,0.00,Rainwise IP-100,2013-03-29 04:15:00,
2013-03-29 00:16:00,60.3,41.0,30.30,NNW,337,3.7,5.1,49,0.00,,,0.00,Rainwise IP-100,2013-03-29 04:16:00,
2013-03-29 00:21:00,60.2,41.0,30.31,NNW,337,3.5,5.1,50,0.00,,,0.00,Rainwise IP-100,2013-03-29 04:21:00,
2013-03-29 00:26:00,60.2,41.0,30.30,NNW,337,2.6,5.6,50,0.00,,,0.00,Rainwise IP-100,2013-03-29 04:26:00,
2013-03-29 00:32:00,60.2,41.0,30.31,NNW,337,3.3,5.4,50,0.00,,,0.00,Rainwise IP-100,2013-03-29 04:32:00,
2013-03-29 00:37:00,60.2,41.0,30.31,NNW,337,2.8,5.6,50,0.00,,,0.00,Rainwise IP-100,2013-03-29 04:37:00,
2013-03-29 00:42:00,60.2,42.0,30.31,NNW,337,2.8,5.4,51,0.00,,,0.00,Rainwise IP-100,2013-03-29 04:42:00,
2013-03-29 00:47:00,60.1,42.0,30.31,NNW,337,2.1,4.0,51,0.00,,,0.00,Rainwise IP-100,2013-03-29 04:47:00,
2013-03-29 00:52:00,60.0,42.0,30.30,NW,315,2.3,4.2,52,0.00,,,0.00,Rainwise IP-100,2013-03-29 04:52:00,
2013-03-29 00:57:00,60.0,43.0,30.30,NW,315,3.5,3.7,54,0.00,,,0.00,Rainwise IP-100,2013-03-29 04:57:00,
2013-03-29 01:02:00,59.9,44.0,30.31,NNW,337,3.5,4.4,55,0.00,,,0.00,Rainwise IP-100,2013-03-29 05:02:00,
2013-03-29 01:07:00,59.9,44.0,30.30,NNW,337,2.1,4.9,55,0.00,,,0.00,Rainwise IP-100,2013-03-29 05:07:00,
2013-03-29 01:12:00,59.9,44.0,30.30,NNW,337,3.7,5.1,56,0.00,,,0.00,Rainwise IP-100,2013-03-29 05:12:00,
2013-03-29 01:17:00,59.8,45.0,30.30,NNW,337,2.6,5.1,57,0.00,,,0.00,Rainwise IP-100,2013-03-29 05:17:00,
2013-03-29 01:22:00,59.8,45.0,30.29,NW,315,2.3,4.0,57,0.00,,,0.00,Rainwise IP-100,2013-03-29 05:22:00,
2013-03-29 01:27:00,59.8,45.0,30.29,NW,315,3.5,4.2,58,0.00,,,0.00,Rainwise IP-100,2013-03-29 05:27:00,
2013-03-29 01:32:00,59.7,45.0,30.29,WNW,292,2.6,4.7,59,0.00,,,0.00,Rainwise IP-100,2013-03-29 05:32:00,
2013-03-29 01:36:00,59.7,45.0,30.29,NW,315,2.1,4.7,59,0.00,,,0.00,Rainwise IP-100,2013-03-29 05:36:00,
2013-03-29 01:41:00,59.6,46.0,30.29,NW,315,3.5,4.7,60,0.00,,,0.00,Rainwise IP-100,2013-03-29 05:41:00,
2013-03-29 01:47:00,59.7,46.0,30.30,NNW,337,2.8,4.7,60,0.00,,,0.00,Rainwise IP-100,2013-03-29 05:47:00,
2013-03-29 01:52:00,59.7,46.0,30.30,NNW,337,3.3,4.9,60,0.00,,,0.00,Rainwise IP-100,2013-03-29 05:52:00,
2013-03-29 01:57:00,59.7,46.0,30.29,NW,315,1.6,4.0,61,0.00,,,0.00,Rainwise IP-100,2013-03-29 05:57:00,
2013-03-29 02:02:00,59.7,46.0,30.30,NNW,337,1.9,4.4,61,0.00,,,0.00,Rainwise IP-100,2013-03-29 06:02:00,
2013-03-29 02:07:00,59.4,47.0,30.29,NW,315,3.0,3.7,62,0.00,,,0.00,Rainwise IP-100,2013-03-29 06:07:00,
2013-03-29 02:12:00,59.4,47.0,30.29,NNW,337,2.6,5.1,62,0.00,,,0.00,Rainwise IP-100,2013-03-29 06:12:00,
2013-03-29 02:17:00,59.7,46.0,30.29,NNW,337,3.0,5.8,61,0.00,,,0.00,Rainwise IP-100,2013-03-29 06:17:00,
2013-03-29 02:22:00,59.9,47.0,30.29,NNW,337,4.2,6.8,61,0.00,,,0.00,Rainwise IP-100,2013-03-29 06:22:00,
2013-03-29 02:28:00,60.0,46.0,30.29,NNW,337,4.7,5.4,60,0.00,,,0.00,Rainwise IP-100,2013-03-29 06:28:00,
2013-03-29 02:33:00,59.8,46.0,30.28,NNW,337,3.3,4.7,60,0.00,,,0.00,Rainwise IP-100,2013-03-29 06:33:00,
2013-03-29 02:38:00,59.6,46.0,30.29,NNW,337,2.6,4.4,61,0.00,,,0.00,Rainwise IP-100,2013-03-29 06:38:00,
2013-03-29 02:43:00,59.5,46.0,30.29,NNW,337,3.3,4.4,61,0.00,,,0.00,Rainwise IP-100,2013-03-29 06:43:00,
2013-03-29 02:48:00,59.4,46.0,30.29,NNW,337,2.8,4.9,61,0.00,,,0.00,Rainwise IP-100,2013-03-29 06:48:00,
2013-03-29 02:53:00,59.4,46.0,30.28,NNW,337,1.4,4.4,61,0.00,,,0.00,Rainwise IP-100,2013-03-29 06:53:00,
2013-03-29 02:58:00,59.5,47.0,30.28,NNW,337,2.1,4.7,62,0.00,,,0.00,Rainwise IP-100,2013-03-29 06:58:00,
2013-03-29 03:04:00,59.5,47.0,30.28,NNW,337,4.7,4.7,62,0.00,,,0.00,Rainwise IP-100,2013-03-29 07:04:00,
2013-03-29 03:09:00,59.4,47.0,30.28,NNW,337,4.2,5.1,62,0.00,,,0.00,Rainwise IP-100,2013-03-29 07:09:00,
2013-03-29 03:14:00,59.4,46.0,30.28,NNW,337,3.5,4.9,61,0.00,,,0.00,Rainwise IP-100,2013-03-29 07:14:00,
2013-03-29 03:19:00,59.3,46.0,30.28,NNW,337,3.3,6.1,61,0.00,,,0.00,Rainwise IP-100,2013-03-29 07:19:00,
2013-03-29 03:24:00,59.4,46.0,30.28,NNW,337,4.0,6.5,60,0.00,,,0.00,Rainwise IP-100,2013-03-29 07:24:00,
2013-03-29 03:29:00,59.5,45.0,30.28,NNW,337,4.0,5.4,59,0.00,,,0.00,Rainwise IP-100,2013-03-29 07:29:00,
2013-03-29 03:34:00,59.5,45.0,30.28,NNW,337,5.4,7.0,59,0.00,,,0.00,Rainwise IP-100,2013-03-29 07:34:00,
2013-03-29 03:39:00,59.6,45.0,30.28,NNW,337,3.7,7.2,59,0.00,,,0.00,Rainwise IP-100,2013-03-29 07:39:00,
2013-03-29 03:45:00,59.6,45.0,30.28,NNW,337,3.5,6.8,58,0.00,,,0.00,Rainwise IP-100,2013-03-29 07:45:00,
2013-03-29 03:50:00,59.6,45.0,30.28,NNW,337,1.9,6.3,58,0.00,,,0.00,Rainwise IP-100,2013-03-29 07:50:00,
2013-03-29 03:55:00,59.5,45.0,30.28,NNW,337,3.7,5.4,58,0.00,,,0.00,Rainwise IP-100,2013-03-29 07:55:00,
2013-03-29 04:00:00,59.4,45.0,30.27,NNW,337,4.0,6.8,59,0.00,,,0.00,Rainwise IP-100,2013-03-29 08:00:00,
2013-03-29 04:05:00,59.4,45.0,30.26,NNW,337,2.8,5.4,59,0.00,,,0.00,Rainwise IP-100,2013-03-29 08:05:00,
2013-03-29 04:10:00,59.4,45.0,30.27,NNW,337,4.4,7.2,59,0.00,,,0.00,Rainwise IP-100,2013-03-29 08:10:00,
2013-03-29 04:15:00,59.4,45.0,30.27,NNW,337,2.8,6.1,59,0.00,,,0.00,Rainwise IP-100,2013-03-29 08:15:00,
2013-03-29 04:20:00,59.4,45.0,30.27,NNW,337,3.7,5.8,58,0.00,,,0.00,Rainwise IP-100,2013-03-29 08:20:00,
2013-03-29 04:26:00,59.3,45.0,30.27,NNW,337,3.3,5.4,59,0.00,,,0.00,Rainwise IP-100,2013-03-29 08:26:00,
2013-03-29 04:31:00,59.3,45.0,30.27,NNW,337,4.0,6.3,59,0.00,,,0.00,Rainwise IP-100,2013-03-29 08:31:00,
2013-03-29 04:36:00,59.3,45.0,30.26,NNW,337,2.6,5.8,59,0.00,,,0.00,Rainwise IP-100,2013-03-29 08:36:00,
2013-03-29 04:41:00,59.2,45.0,30.26,NNW,337,3.0,5.6,59,0.00,,,0.00,Rainwise IP-100,2013-03-29 08:41:00,
2013-03-29 04:46:00,59.1,45.0,30.26,NNW,337,4.4,5.6,60,0.00,,,0.00,Rainwise IP-100,2013-03-29 08:46:00,
2013-03-29 04:51:00,59.0,45.0,30.27,NNW,337,3.0,5.6,60,0.00,,,0.00,Rainwise IP-100,2013-03-29 08:51:00,
2013-03-29 04:57:00,59.0,45.0,30.27,NNW,337,2.1,5.1,60,0.00,,,0.00,Rainwise IP-100,2013-03-29 08:57:00,
2013-03-29 05:02:00,58.9,45.0,30.27,NNW,337,2.1,5.4,60,0.00,,,0.00,Rainwise IP-100,2013-03-29 09:02:00,
2013-03-29 05:07:00,58.8,46.0,30.27,North,360,4.7,5.4,61,0.00,,,0.00,Rainwise IP-100,2013-03-29 09:07:00,
2013-03-29 05:12:00,59.0,45.0,30.27,NNW,337,5.1,6.3,60,0.00,,,0.00,Rainwise IP-100,2013-03-29 09:12:00,
2013-03-29 05:17:00,59.1,45.0,30.27,NNW,337,2.8,5.1,60,0.00,,,0.00,Rainwise IP-100,2013-03-29 09:17:00,
2013-03-29 05:22:00,59.1,45.0,30.27,NNW,337,3.3,5.6,60,0.00,,,0.00,Rainwise IP-100,2013-03-29 09:22:00,
2013-03-29 05:27:00,59.1,45.0,30.27,NNW,337,2.8,5.6,60,0.00,,,0.00,Rainwise IP-100,2013-03-29 09:27:00,
2013-03-29 05:33:00,59.0,46.0,30.27,NNW,337,2.6,4.0,61,0.00,,,0.00,Rainwise IP-100,2013-03-29 09:33:00,
2013-03-29 05:38:00,58.9,46.0,30.27,NNW,337,3.5,4.9,61,0.00,,,0.00,Rainwise IP-100,2013-03-29 09:38:00,
2013-03-29 05:43:00,58.8,46.0,30.27,NNW,337,4.2,5.4,61,0.00,,,0.00,Rainwise IP-100,2013-03-29 09:43:00,
2013-03-29 05:48:00,58.9,46.0,30.27,NNW,337,4.7,5.1,61,0.00,,,0.00,Rainwise IP-100,2013-03-29 09:48:00,
2013-03-29 05:53:00,59.0,46.0,30.27,NNW,337,3.0,6.5,61,0.00,,,0.00,Rainwise IP-100,2013-03-29 09:53:00,
2013-03-29 05:58:00,59.0,46.0,30.27,NNW,337,4.4,5.4,61,0.00,,,0.00,Rainwise IP-100,2013-03-29 09:58:00,
2013-03-29 06:03:00,59.0,46.0,30.28,NW,315,3.7,6.3,62,0.00,,,0.00,Rainwise IP-100,2013-03-29 10:03:00,
2013-03-29 06:08:00,58.9,46.0,30.28,NNW,337,2.8,6.1,62,0.00,,,0.00,Rainwise IP-100,2013-03-29 10:08:00,
2013-03-29 06:14:00,58.9,46.0,30.28,NNW,337,6.1,7.0,62,0.00,,,0.00,Rainwise IP-100,2013-03-29 10:14:00,
2013-03-29 06:19:00,59.0,46.0,30.28,NNW,337,2.3,6.1,62,0.00,,,0.00,Rainwise IP-100,2013-03-29 10:19:00,
2013-03-29 06:24:00,58.9,46.0,30.28,NNW,337,3.0,5.6,62,0.00,,,0.00,Rainwise IP-100,2013-03-29 10:24:00,
2013-03-29 06:29:00,58.9,46.0,30.28,NNW,337,3.3,6.1,62,0.00,,,0.00,Rainwise IP-100,2013-03-29 10:29:00,
2013-03-29 06:34:00,59.0,46.0,30.29,NNW,337,3.7,6.5,61,0.00,,,0.00,Rainwise IP-100,2013-03-29 10:34:00,
2013-03-29 06:39:00,58.9,46.0,30.28,North,360,3.5,5.1,61,0.00,,,0.00,Rainwise IP-100,2013-03-29 10:39:00,
2013-03-29 06:44:00,58.9,46.0,30.29,NNW,337,4.2,6.5,62,0.00,,,0.00,Rainwise IP-100,2013-03-29 10:44:00,
2013-03-29 06:49:00,58.9,46.0,30.29,NNW,337,4.7,6.1,62,0.00,,,0.00,Rainwise IP-100,2013-03-29 10:49:00,
2013-03-29 06:55:00,59.0,46.0,30.30,North,360,4.7,6.5,61,0.00,,,0.00,Rainwise IP-100,2013-03-29 10:55:00,
2013-03-29 07:00:00,58.9,46.0,30.29,NNW,337,3.7,5.1,61,0.00,,,0.00,Rainwise IP-100,2013-03-29 11:00:00,
2013-03-29 07:05:00,58.9,46.0,30.30,NNW,337,4.7,5.1,61,0.00,,,0.00,Rainwise IP-100,2013-03-29 11:05:00,
2013-03-29 07:10:00,58.9,46.0,30.30,NW,315,3.7,6.5,61,0.00,,,0.00,Rainwise IP-100,2013-03-29 11:10:00,
2013-03-29 07:15:00,58.9,46.0,30.30,NNW,337,3.3,6.3,61,0.00,,,0.00,Rainwise IP-100,2013-03-29 11:15:00,
2013-03-29 07:20:00,58.9,46.0,30.30,NNW,337,3.7,5.6,61,0.00,,,0.00,Rainwise IP-100,2013-03-29 11:20:00,
2013-03-29 07:25:00,58.9,46.0,30.30,NNW,337,3.0,6.8,62,0.00,,,0.00,Rainwise IP-100,2013-03-29 11:25:00,
2013-03-29 07:30:00,58.9,46.0,30.30,NNW,337,3.0,5.1,62,0.00,,,0.00,Rainwise IP-100,2013-03-29 11:30:00,
2013-03-29 07:36:00,58.8,46.0,30.31,NNW,337,4.7,4.7,62,0.00,,,0.00,Rainwise IP-100,2013-03-29 11:36:00,
2013-03-29 07:41:00,58.8,46.0,30.30,NNW,337,2.1,6.1,62,0.00,,,0.00,Rainwise IP-100,2013-03-29 11:41:00,
2013-03-29 07:46:00,58.9,46.0,30.31,NNW,337,3.3,5.1,62,0.00,,,0.00,Rainwise IP-100,2013-03-29 11:46:00,
2013-03-29 07:51:00,59.0,46.0,30.30,NNW,337,1.9,4.7,62,0.00,,,0.00,Rainwise IP-100,2013-03-29 11:51:00,
2013-03-29 07:56:00,59.2,46.0,30.30,NNW,337,3.0,4.2,62,0.00,,,0.00,Rainwise IP-100,2013-03-29 11:56:00,
2013-03-29 08:01:00,59.6,47.0,30.31,NNW,337,3.0,5.8,62,0.00,,,0.00,Rainwise IP-100,2013-03-29 12:01:00,
2013-03-29 08:07:00,60.0,47.0,30.31,NW,315,4.2,6.5,61,0.00,,,0.00,Rainwise IP-100,2013-03-29 12:07:00,
2013-03-29 08:12:00,60.3,47.0,30.31,NNW,337,3.5,7.2,61,0.00,,,0.00,Rainwise IP-100,2013-03-29 12:12:00,
2013-03-29 08:17:00,60.8,47.0,30.31,NNW,337,2.8,7.0,60,0.00,,,0.00,Rainwise IP-100,2013-03-29 12:17:00,
2013-03-29 08:22:00,61.4,47.0,30.31,NNW,337,4.2,7.9,59,0.00,,,0.00,Rainwise IP-100,2013-03-29 12:22:00,
2013-03-29 08:27:00,61.8,47.0,30.32,NNE,22,3.7,8.6,58,0.00,,,0.00,Rainwise IP-100,2013-03-29 12:27:00,
2013-03-29 08:32:00,62.4,47.0,30.32,NNE,22,7.9,7.9,57,0.00,,,0.00,Rainwise IP-100,2013-03-29 12:32:00,
2013-03-29 08:37:00,62.9,47.5,30.32,NNW,337,5.6,7.9,57,0.00,,,0.00,Rainwise IP-100,2013-03-29 12:37:00,
2013-03-29 08:42:00,63.4,47.5,30.32,NW,315,4.0,7.5,56,0.00,,,0.00,Rainwise IP-100,2013-03-29 12:42:00,
2013-03-29 08:48:00,63.8,47.5,30.32,WNW,292,5.8,7.2,55,0.00,,,0.00,Rainwise IP-100,2013-03-29 12:48:00,
2013-03-29 08:53:00,64.4,48.0,30.32,NNW,337,4.4,9.1,55,0.00,,,0.00,Rainwise IP-100,2013-03-29 12:53:00,
2013-03-29 08:58:00,65.0,47.5,30.32,NNW,337,3.7,9.1,54,0.00,,,0.00,Rainwise IP-100,2013-03-29 12:58:00,
2013-03-29 09:03:00,65.3,47.5,30.32,NNW,337,6.3,10.5,53,0.00,,,0.00,Rainwise IP-100,2013-03-29 13:03:00,
2013-03-29 09:08:00,66.1,47.5,30.32,North,360,7.7,11.7,52,0.00,,,0.00,Rainwise IP-100,2013-03-29 13:08:00,
2013-03-29 09:13:00,66.5,48.0,30.32,NNW,337,11.0,11.0,51,0.00,,,0.00,Rainwise IP-100,2013-03-29 13:13:00,
2013-03-29 09:18:00,66.7,48.0,30.32,NNW,337,7.2,12.4,51,0.00,,,0.00,Rainwise IP-100,2013-03-29 13:18:00,
2013-03-29 09:24:00,67.4,48.0,30.32,NNE,22,12.1,12.1,50,0.00,,,0.00,Rainwise IP-100,2013-03-29 13:24:00,
2013-03-29 09:29:00,67.7,48.0,30.32,NW,315,6.5,10.3,50,0.00,,,0.00,Rainwise IP-100,2013-03-29 13:29:00,
2013-03-29 09:34:00,67.6,48.0,30.32,NNW,337,4.2,10.3,50,0.00,,,0.00,Rainwise IP-100,2013-03-29 13:34:00,
2013-03-29 09:39:00,68.0,49.0,30.33,NW,315,6.8,12.6,50,0.00,,,0.00,Rainwise IP-100,2013-03-29 13:39:00,
2013-03-29 09:44:00,68.6,48.0,30.33,NNW,337,4.2,9.8,49,0.00,,,0.00,Rainwise IP-100,2013-03-29 13:44:00,
2013-03-29 09:49:00,69.4,49.0,30.33,NNW,337,2.1,12.1,48,0.00,,,0.00,Rainwise IP-100,2013-03-29 13:49:00,
2013-03-29 09:54:00,69.9,49.0,30.33,NNE,22,9.8,12.4,47,0.00,,,0.00,Rainwise IP-100,2013-03-29 13:54:00,
2013-03-29 09:59:00,69.8,48.0,30.33,NW,315,5.6,13.5,47,0.00,,,0.00,Rainwise IP-100,2013-03-29 13:59:00,
2013-03-29 10:05:00,70.1,49.0,30.33,North,360,6.5,12.6,47,0.00,,,0.00,Rainwise IP-100,2013-03-29 14:05:00,
2013-03-29 10:10:00,70.9,50.0,30.34,NNE,22,8.4,14.2,47,0.00,,,0.00,Rainwise IP-100,2013-03-29 14:10:00,
2013-03-29 10:15:00,71.2,49.0,30.34,NNE,22,7.2,14.5,46,0.00,,,0.00,Rainwise IP-100,2013-03-29 14:15:00,
2013-03-29 10:20:00,71.2,49.0,30.34,NNE,22,6.3,12.4,46,0.00,,,0.00,Rainwise IP-100,2013-03-29 14:20:00,
2013-03-29 10:25:00,71.0,49.0,30.34,NNE,22,9.6,14.7,46,0.00,,,0.00,Rainwise IP-100,2013-03-29 14:25:00,
2013-03-29 10:30:00,71.0,50.0,30.34,NE,45,8.2,13.1,47,0.00,,,0.00,Rainwise IP-100,2013-03-29 14:30:00,
2013-03-29 10:35:00,71.0,50.0,30.34,NNE,22,8.9,16.8,47,0.00,,,0.00,Rainwise IP-100,2013-03-29 14:35:00,
2013-03-29 10:40:00,71.0,50.0,30.34,North,360,10.7,14.2,47,0.00,,,0.00,Rainwise IP-100,2013-03-29 14:40:00,
2013-03-29 10:46:00,71.2,50.0,30.34,NNE,22,7.9,15.4,47,0.00,,,0.00,Rainwise IP-100,2013-03-29 14:46:00,
2013-03-29 10:51:00,71.0,50.0,30.34,NNE,22,8.9,14.2,48,0.00,,,0.00,Rainwise IP-100,2013-03-29 14:51:00,
2013-03-29 10:56:00,70.9,50.0,30.34,NE,45,6.5,14.9,48,0.00,,,0.00,Rainwise IP-100,2013-03-29 14:56:00,
2013-03-29 11:01:00,71.2,50.5,30.34,NNE,22,10.5,15.6,48,0.00,,,0.00,Rainwise IP-100,2013-03-29 15:01:00,
2013-03-29 11:07:00,71.5,50.5,30.34,NNE,22,6.3,18.0,48,0.00,,,0.00,Rainwise IP-100,2013-03-29 15:07:00,
2013-03-29 11:12:00,71.4,50.5,30.34,NNE,22,15.4,15.4,48,0.00,,,0.00,Rainwise IP-100,2013-03-29 15:12:00,
2013-03-29 11:17:00,71.3,50.5,30.34,NNE,22,4.0,15.4,48,0.00,,,0.00,Rainwise IP-100,2013-03-29 15:17:00,
2013-03-29 11:22:00,71.2,50.5,30.34,NNW,337,11.0,19.6,48,0.00,,,0.00,Rainwise IP-100,2013-03-29 15:22:00,
2013-03-29 11:27:00,71.3,50.5,30.34,NNE,22,6.8,14.9,48,0.00,,,0.00,Rainwise IP-100,2013-03-29 15:27:00,
2013-03-29 11:32:00,71.4,50.5,30.34,NNE,22,10.0,17.7,48,0.00,,,0.00,Rainwise IP-100,2013-03-29 15:32:00,
2013-03-29 11:37:00,71.5,50.0,30.34,NE,45,11.9,17.3,46,0.00,,,0.00,Rainwise IP-100,2013-03-29 15:37:00,
2013-03-29 11:42:00,71.5,50.0,30.34,North,360,10.3,16.3,46,0.00,,,0.00,Rainwise IP-100,2013-03-29 15:42:00,
2013-03-29 11:47:00,71.3,50.0,30.34,ENE,67,11.4,15.9,47,0.00,,,0.00,Rainwise IP-100,2013-03-29 15:47:00,
2013-03-29 11:53:00,71.8,50.5,30.34,NNE,22,7.0,15.6,47,0.00,,,0.00,Rainwise IP-100,2013-03-29 15:53:00,
2013-03-29 11:58:00,72.3,50.5,30.34,North,360,6.5,14.0,46,0.00,,,0.00,Rainwise IP-100,2013-03-29 15:58:00,
2013-03-29 12:03:00,72.1,50.0,30.34,NNE,22,6.3,11.2,46,0.00,,,0.00,Rainwise IP-100,2013-03-29 16:03:00,
2013-03-29 12:08:00,71.7,50.5,30.34,NNW,337,10.0,14.0,47,0.00,,,0.00,Rainwise IP-100,2013-03-29 16:08:00,
2013-03-29 12:13:00,71.4,50.0,30.34,NNE,22,9.1,13.3,47,0.00,,,0.00,Rainwise IP-100,2013-03-29 16:13:00,
2013-03-29 12:18:00,71.5,50.5,30.33,NE,45,5.6,15.6,48,0.00,,,0.00,Rainwise IP-100,2013-03-29 16:18:00,
2013-03-29 12:23:00,71.3,50.5,30.33,ENE,67,11.4,15.6,48,0.00,,,0.00,Rainwise IP-100,2013-03-29 16:23:00,
2013-03-29 12:29:00,71.3,50.0,30.33,NNE,22,6.8,14.5,47,0.00,,,0.00,Rainwise IP-100,2013-03-29 16:29:00,
2013-03-29 12:34:00,71.9,50.0,30.33,NNE,22,7.7,14.2,46,0.00,,,0.00,Rainwise IP-100,2013-03-29 16:34:00,
2013-03-29 12:39:00,72.1,50.5,30.34,ENE,67,10.5,13.5,47,0.00,,,0.00,Rainwise IP-100,2013-03-29 16:39:00,
2013-03-29 12:44:00,71.7,50.5,30.32,ENE,67,11.0,16.6,47,0.00,,,0.00,Rainwise IP-100,2013-03-29 16:44:00,
2013-03-29 12:49:00,71.8,50.5,30.32,NE,45,13.1,14.2,47,0.00,,,0.00,Rainwise IP-100,2013-03-29 16:49:00,
2013-03-29 12:54:00,71.6,50.5,30.32,NE,45,11.7,17.7,47,0.00,,,0.00,Rainwise IP-100,2013-03-29 16:54:00,
2013-03-29 12:59:00,71.7,50.5,30.33,NNE,22,7.7,18.7,48,0.00,,,0.00,Rainwise IP-100,2013-03-29 16:59:00,
2013-03-29 13:05:00,71.9,51.0,30.32,NNE,22,13.3,15.9,48,0.00,,,0.00,Rainwise IP-100,2013-03-29 17:05:00,
2013-03-29 13:10:00,71.7,50.5,30.32,ENE,67,7.5,15.2,47,0.00,,,0.00,Rainwise IP-100,2013-03-29 17:10:00,
2013-03-29 13:15:00,71.6,50.5,30.32,North,360,5.8,14.0,47,0.00,,,0.00,Rainwise IP-100,2013-03-29 17:15:00,
2013-03-29 13:20:00,72.0,50.0,30.32,NNW,337,4.9,12.8,46,0.00,,,0.00,Rainwise IP-100,2013-03-29 17:20:00,
2013-03-29 13:25:00,72.4,50.5,30.32,NE,45,12.1,13.3,46,0.00,,,0.00,Rainwise IP-100,2013-03-29 17:25:00,
2013-03-29 13:30:00,71.9,50.0,30.31,ENE,67,7.5,16.3,46,0.00,,,0.00,Rainwise IP-100,2013-03-29 17:30:00,
2013-03-29 13:35:00,71.6,50.5,30.31,ENE,67,12.1,15.4,47,0.00,,,0.00,Rainwise IP-100,2013-03-29 17:35:00,
2013-03-29 13:40:00,71.5,50.5,30.31,ENE,67,13.1,16.1,48,0.00,,,0.00,Rainwise IP-100,2013-03-29 17:40:00,
2013-03-29 13:45:00,71.2,50.5,30.31,ENE,67,6.8,16.8,48,0.00,,,0.00,Rainwise IP-100,2013-03-29 17:45:00,
2013-03-29 13:51:00,70.9,50.5,30.31,ENE,67,8.6,17.3,49,0.00,,,0.00,Rainwise IP-100,2013-03-29 17:51:00,
2013-03-29 13:56:00,70.9,50.5,30.30,ENE,67,8.4,15.6,49,0.00,,,0.00,Rainwise IP-100,2013-03-29 17:56:00,
2013-03-29 14:01:00,71.0,50.0,30.30,NNE,22,8.6,19.1,48,0.00,,,0.00,Rainwise IP-100,2013-03-29 18:01:00,
2013-03-29 14:06:00,71.0,50.0,30.30,ENE,67,8.9,15.6,48,0.00,,,0.00,Rainwise IP-100,2013-03-29 18:06:00,
2013-03-29 14:11:00,71.0,50.0,30.30,ENE,67,10.7,17.3,48,0.00,,,0.00,Rainwise IP-100,2013-03-29 18:11:00,
2013-03-29 14:16:00,71.1,50.0,30.29,NE,45,10.3,17.3,48,0.00,,,0.00,Rainwise IP-100,2013-03-29 18:16:00,
2013-03-29 14:21:00,71.3,51.0,30.29,NE,45,11.9,18.2,49,0.00,,,0.00,Rainwise IP-100,2013-03-29 18:21:00,
2013-03-29 14:26:00,71.2,52.0,30.29,NNE,22,9.1,18.2,50,0.00,,,0.00,Rainwise IP-100,2013-03-29 18:26:00,
2013-03-29 14:32:00,71.1,51.0,30.29,ENE,67,12.1,17.0,50,0.00,,,0.00,Rainwise IP-100,2013-03-29 18:32:00,
2013-03-29 14:37:00,71.1,51.0,30.29,ENE,67,10.3,16.3,50,0.00,,,0.00,Rainwise IP-100,2013-03-29 18:37:00,
2013-03-29 14:42:00,71.1,52.0,30.28,ENE,67,11.7,17.0,51,0.00,,,0.00,Rainwise IP-100,2013-03-29 18:42:00,
2013-03-29 14:47:00,71.2,52.0,30.28,NE,45,10.5,17.5,51,0.00,,,0.00,Rainwise IP-100,2013-03-29 18:47:00,
2013-03-29 14:52:00,71.0,52.0,30.29,NE,45,10.3,15.9,51,0.00,,,0.00,Rainwise IP-100,2013-03-29 18:52:00,
2013-03-29 14:57:00,70.8,52.0,30.28,NNE,22,14.7,17.5,51,0.00,,,0.00,Rainwise IP-100,2013-03-29 18:57:00,
2013-03-29 15:02:00,70.6,51.0,30.28,NNE,22,10.3,17.0,51,0.00,,,0.00,Rainwise IP-100,2013-03-29 19:02:00,
2013-03-29 15:07:00,70.8,52.0,30.28,ENE,67,10.5,16.3,51,0.00,,,0.00,Rainwise IP-100,2013-03-29 19:07:00,
2013-03-29 15:13:00,71.2,52.0,30.28,ENE,67,10.3,15.4,51,0.00,,,0.00,Rainwise IP-100,2013-03-29 19:13:00,
2013-03-29 15:18:00,70.9,52.0,30.28,ENE,67,8.9,16.3,51,0.00,,,0.00,Rainwise IP-100,2013-03-29 19:18:00,
2013-03-29 15:23:00,70.7,51.0,30.28,ENE,67,7.5,12.4,51,0.00,,,0.00,Rainwise IP-100,2013-03-29 19:23:00,
2013-03-29 15:28:00,70.8,52.0,30.28,ENE,67,11.7,15.2,51,0.00,,,0.00,Rainwise IP-100,2013-03-29 19:28:00,
2013-03-29 15:33:00,70.7,51.0,30.28,ENE,67,6.5,14.2,51,0.00,,,0.00,Rainwise IP-100,2013-03-29 19:33:00,
2013-03-29 15:38:00,70.4,51.0,30.27,NNE,22,10.0,14.0,51,0.00,,,0.00,Rainwise IP-100,2013-03-29 19:38:00,
2013-03-29 15:43:00,70.2,51.0,30.28,NNE,22,8.9,13.5,51,0.00,,,0.00,Rainwise IP-100,2013-03-29 19:43:00,
2013-03-29 15:48:00,70.4,52.0,30.27,ENE,67,11.2,14.9,52,0.00,,,0.00,Rainwise IP-100,2013-03-29 19:48:00,
2013-03-29 15:54:00,70.6,52.0,30.26,NE,45,11.2,15.4,52,0.00,,,0.00,Rainwise IP-100,2013-03-29 19:54:00,
2013-03-29 15:59:00,70.7,52.0,30.26,NE,45,12.1,14.2,52,0.00,,,0.00,Rainwise IP-100,2013-03-29 19:59:00,
2013-03-29 16:04:00,70.7,51.0,30.27,ENE,67,10.0,15.9,51,0.00,,,0.00,Rainwise IP-100,2013-03-29 20:04:00,
2013-03-29 16:09:00,70.7,51.0,30.27,ENE,67,5.8,12.6,51,0.00,,,0.00,Rainwise IP-100,2013-03-29 20:09:00,
2013-03-29 16:14:00,70.7,51.0,30.27,NE,45,7.7,12.8,51,0.00,,,0.00,Rainwise IP-100,2013-03-29 20:14:00,
2013-03-29 16:19:00,70.7,51.0,30.26,ENE,67,11.2,14.0,50,0.00,,,0.00,Rainwise IP-100,2013-03-29 20:19:00,
2013-03-29 16:24:00,70.9,50.0,30.27,NE,45,7.9,14.0,48,0.00,,,0.00,Rainwise IP-100,2013-03-29 20:24:00,
2013-03-29 16:30:00,70.9,50.0,30.26,NNE,22,7.7,14.2,48,0.00,,,0.00,Rainwise IP-100,2013-03-29 20:30:00,
2013-03-29 16:35:00,70.9,50.5,30.27,NE,45,9.6,16.1,49,0.00,,,0.00,Rainwise IP-100,2013-03-29 20:35:00,
2013-03-29 16:40:00,70.8,51.0,30.27,NNE,22,10.5,14.9,50,0.00,,,0.00,Rainwise IP-100,2013-03-29 20:40:00,
2013-03-29 16:45:00,70.5,51.0,30.26,ENE,67,5.4,13.1,50,0.00,,,0.00,Rainwise IP-100,2013-03-29 20:45:00,
2013-03-29 16:50:00,70.6,51.0,30.26,NNE,22,10.3,18.4,51,0.00,,,0.00,Rainwise IP-100,2013-03-29 20:50:00,
2013-03-29 16:55:00,70.4,52.0,30.27,NNE,22,8.6,16.6,52,0.00,,,0.00,Rainwise IP-100,2013-03-29 20:55:00,
2013-03-29 17:00:00,70.3,52.0,30.27,ENE,67,12.8,14.7,52,0.00,,,0.00,Rainwise IP-100,2013-03-29 21:00:00,
2013-03-29 17:05:00,70.4,53.0,30.27,ENE,67,10.5,16.1,53,0.00,,,0.00,Rainwise IP-100,2013-03-29 21:05:00,
2013-03-29 17:11:00,70.6,52.0,30.26,NE,45,11.2,13.1,52,0.00,,,0.00,Rainwise IP-100,2013-03-29 21:11:00,
2013-03-29 17:16:00,70.6,52.0,30.27,NE,45,8.4,13.1,52,0.00,,,0.00,Rainwise IP-100,2013-03-29 21:16:00,
2013-03-29 17:21:00,70.2,51.0,30.27,ENE,67,5.6,15.9,52,0.00,,,0.00,Rainwise IP-100,2013-03-29 21:21:00,
2013-03-29 17:26:00,69.7,52.0,30.27,NE,45,10.0,13.3,53,0.00,,,0.00,Rainwise IP-100,2013-03-29 21:26:00,
2013-03-29 17:31:00,69.5,52.0,30.27,ENE,67,6.1,16.1,54,0.00,,,0.00,Rainwise IP-100,2013-03-29 21:31:00,
2013-03-29 17:36:00,69.5,52.0,30.27,ENE,67,3.5,13.5,54,0.00,,,0.00,Rainwise IP-100,2013-03-29 21:36:00,
2013-03-29 17:41:00,69.5,52.0,30.27,ENE,67,5.4,12.6,54,0.00,,,0.00,Rainwise IP-100,2013-03-29 21:41:00,
2013-03-29 17:46:00,69.8,53.0,30.26,NNE,22,6.8,11.7,55,0.00,,,0.00,Rainwise IP-100,2013-03-29 21:46:00,
2013-03-29 17:52:00,69.7,52.0,30.27,ENE,67,9.8,14.7,54,0.00,,,0.00,Rainwise IP-100,2013-03-29 21:52:00,
2013-03-29 17:57:00,69.6,52.0,30.27,ENE,67,8.2,13.3,54,0.00,,,0.00,Rainwise IP-100,2013-03-29 21:57:00,
2013-03-29 18:02:00,69.8,52.0,30.27,ENE,67,4.2,16.8,53,0.00,,,0.00,Rainwise IP-100,2013-03-29 22:02:00,
2013-03-29 18:07:00,69.8,52.0,30.27,East,90,6.3,11.9,53,0.00,,,0.00,Rainwise IP-100,2013-03-29 22:07:00,
2013-03-29 18:12:00,69.6,52.0,30.27,ENE,67,5.8,9.6,53,0.00,,,0.00,Rainwise IP-100,2013-03-29 22:12:00,
2013-03-29 18:17:00,69.5,52.0,30.27,ENE,67,5.8,12.8,54,0.00,,,0.00,Rainwise IP-100,2013-03-29 22:17:00,
2013-03-29 18:22:00,69.3,52.0,30.27,ENE,67,4.7,12.1,54,0.00,,,0.00,Rainwise IP-100,2013-03-29 22:22:00,
2013-03-29 18:28:00,69.3,52.0,30.27,NNE,22,8.9,11.7,54,0.00,,,0.00,Rainwise IP-100,2013-03-29 22:28:00,
2013-03-29 18:33:00,69.3,52.0,30.27,ENE,67,6.3,12.8,54,0.00,,,0.00,Rainwise IP-100,2013-03-29 22:33:00,
2013-03-29 18:38:00,69.1,51.0,30.27,NNE,22,8.4,12.6,54,0.00,,,0.00,Rainwise IP-100,2013-03-29 22:38:00,
2013-03-29 18:43:00,68.9,51.0,30.27,ENE,67,6.1,12.1,54,0.00,,,0.00,Rainwise IP-100,2013-03-29 22:43:00,
2013-03-29 18:48:00,68.8,51.0,30.27,NE,45,10.5,14.2,54,0.00,,,0.00,Rainwise IP-100,2013-03-29 22:48:00,
2013-03-29 18:53:00,68.7,52.0,30.27,ENE,67,7.0,13.3,55,0.00,,,0.00,Rainwise IP-100,2013-03-29 22:53:00,
2013-03-29 18:58:00,68.6,52.0,30.26,NNE,22,7.7,11.4,56,0.00,,,0.00,Rainwise IP-100,2013-03-29 22:58:00,
2013-03-29 19:03:00,68.5,52.0,30.27,ENE,67,3.3,13.8,55,0.00,,,0.00,Rainwise IP-100,2013-03-29 23:03:00,
2013-03-29 19:08:00,68.4,52.0,30.27,ESE,112,7.5,11.7,55,0.00,,,0.00,Rainwise IP-100,2013-03-29 23:08:00,
2013-03-29 19:14:00,68.4,52.0,30.27,ENE,67,6.1,13.8,56,0.00,,,0.00,Rainwise IP-100,2013-03-29 23:14:00,
2013-03-29 19:19:00,68.3,52.0,30.27,ENE,67,6.5,13.5,56,0.00,,,0.00,Rainwise IP-100,2013-03-29 23:19:00,
2013-03-29 19:24:00,68.2,52.0,30.27,NE,45,11.0,11.7,56,0.00,,,0.00,Rainwise IP-100,2013-03-29 23:24:00,
2013-03-29 19:29:00,68.0,52.0,30.27,ENE,67,7.7,11.9,56,0.00,,,0.00,Rainwise IP-100,2013-03-29 23:29:00,
2013-03-29 19:34:00,68.0,52.0,30.27,ENE,67,6.3,11.0,57,0.00,,,0.00,Rainwise IP-100,2013-03-29 23:34:00,
2013-03-29 19:39:00,68.0,53.0,30.27,ENE,67,6.1,10.5,58,0.00,,,0.00,Rainwise IP-100,2013-03-29 23:39:00,
2013-03-29 19:44:00,68.0,53.0,30.27,ENE,67,8.9,11.0,58,0.00,,,0.00,Rainwise IP-100,2013-03-29 23:44:00,
2013-03-29 19:49:00,68.0,53.0,30.27,ENE,67,7.5,11.7,58,0.00,,,0.00,Rainwise IP-100,2013-03-29 23:49:00,
2013-03-29 19:55:00,67.9,53.5,30.27,ENE,67,5.1,9.6,59,0.00,,,0.00,Rainwise IP-100,2013-03-29 23:55:00,
2013-03-29 20:00:00,67.8,53.5,30.27,ENE,67,7.9,9.8,59,0.00,,,0.00,Rainwise IP-100,2013-03-30 00:00:00,
2013-03-29 20:05:00,67.8,53.5,30.28,ENE,67,8.6,13.3,59,0.00,,,0.00,Rainwise IP-100,2013-03-30 00:05:00,
2013-03-29 20:10:00,67.8,53.5,30.28,ENE,67,12.6,12.6,59,0.00,,,0.00,Rainwise IP-100,2013-03-30 00:10:00,
2013-03-29 20:15:00,67.7,53.5,30.27,East,90,3.7,15.2,60,0.00,,,0.00,Rainwise IP-100,2013-03-30 00:15:00,
2013-03-29 20:20:00,67.7,53.5,30.28,ENE,67,4.7,11.4,60,0.00,,,0.00,Rainwise IP-100,2013-03-30 00:20:00,
2013-03-29 20:25:00,67.6,53.0,30.28,ENE,67,7.7,9.1,59,0.00,,,0.00,Rainwise IP-100,2013-03-30 00:25:00,
2013-03-29 20:31:00,67.7,53.0,30.28,ENE,67,5.4,15.9,59,0.00,,,0.00,Rainwise IP-100,2013-03-30 00:31:00,
2013-03-29 20:36:00,67.7,53.5,30.28,ENE,67,3.5,14.2,60,0.00,,,0.00,Rainwise IP-100,2013-03-30 00:36:00,
2013-03-29 20:41:00,67.5,53.0,30.28,ESE,112,11.0,11.4,59,0.00,,,0.00,Rainwise IP-100,2013-03-30 00:41:00,
2013-03-29 20:46:00,67.5,53.0,30.28,ESE,112,7.7,11.9,59,0.00,,,0.00,Rainwise IP-100,2013-03-30 00:46:00,
2013-03-29 20:51:00,67.6,53.0,30.28,East,90,4.7,10.5,59,0.00,,,0.00,Rainwise IP-100,2013-03-30 00:51:00,
2013-03-29 20:56:00,67.6,53.0,30.29,East,90,5.4,10.3,59,0.00,,,0.00,Rainwise IP-100,2013-03-30 00:56:00,
2013-03-29 21:01:00,67.5,53.0,30.28,ENE,67,7.5,11.4,59,0.00,,,0.00,Rainwise IP-100,2013-03-30 01:01:00,
2013-03-29 21:06:00,67.4,52.0,30.28,ENE,67,5.6,10.7,58,0.00,,,0.00,Rainwise IP-100,2013-03-30 01:06:00,
2013-03-29 21:12:00,67.4,52.0,30.29,East,90,4.7,9.3,58,0.00,,,0.00,Rainwise IP-100,2013-03-30 01:12:00,
2013-03-29 21:17:00,67.5,52.0,30.29,ESE,112,1.2,8.6,58,0.00,,,0.00,Rainwise IP-100,2013-03-30 01:17:00,
2013-03-29 21:22:00,67.5,52.0,30.29,ENE,67,8.9,12.8,58,0.00,,,0.00,Rainwise IP-100,2013-03-30 01:22:00,
2013-03-29 21:27:00,67.4,53.0,30.29,ENE,67,7.2,12.8,59,0.00,,,0.00,Rainwise IP-100,2013-03-30 01:27:00,
2013-03-29 21:32:00,67.4,53.0,30.30,NE,45,6.8,13.8,59,0.00,,,0.00,Rainwise IP-100,2013-03-30 01:32:00,
2013-03-29 21:37:00,67.4,53.0,30.29,ENE,67,9.6,12.1,59,0.00,,,0.00,Rainwise IP-100,2013-03-30 01:37:00,
2013-03-29 21:42:00,67.4,53.0,30.30,ENE,67,3.7,10.3,59,0.00,,,0.00,Rainwise IP-100,2013-03-30 01:42:00,
2013-03-29 21:47:00,67.4,52.0,30.29,ENE,67,7.0,11.7,58,0.00,,,0.00,Rainwise IP-100,2013-03-30 01:47:00,
2013-03-29 21:53:00,67.4,53.0,30.30,ENE,67,7.7,12.8,59,0.00,,,0.00,Rainwise IP-100,2013-03-30 01:53:00,
2013-03-29 21:58:00,67.4,53.0,30.30,East,90,8.4,12.6,59,0.00,,,0.00,Rainwise IP-100,2013-03-30 01:58:00,
2013-03-29 22:03:00,67.3,53.0,30.30,ENE,67,7.0,10.3,59,0.00,,,0.00,Rainwise IP-100,2013-03-30 02:03:00,
2013-03-29 22:08:00,67.4,53.0,30.30,SW,225,1.9,9.6,59,0.00,,,0.00,Rainwise IP-100,2013-03-30 02:08:00,
2013-03-29 22:13:00,67.3,53.0,30.30,ENE,67,7.9,9.6,59,0.00,,,0.00,Rainwise IP-100,2013-03-30 02:13:00,
2013-03-29 22:18:00,67.4,53.0,30.30,ENE,67,7.5,11.0,59,0.00,,,0.00,Rainwise IP-100,2013-03-30 02:18:00,
2013-03-29 22:23:00,67.4,53.0,30.30,ENE,67,5.1,10.7,59,0.00,,,0.00,Rainwise IP-100,2013-03-30 02:23:00,
2013-03-29 22:28:00,67.4,53.5,30.31,ENE,67,5.6,8.2,60,0.00,,,0.00,Rainwise IP-100,2013-03-30 02:28:00,
2013-03-29 22:33:00,67.3,53.0,30.30,ENE,67,3.7,10.3,59,0.00,,,0.00,Rainwise IP-100,2013-03-30 02:33:00,
2013-03-29 22:39:00,67.3,53.0,30.31,East,90,7.5,9.6,59,0.00,,,0.00,Rainwise IP-100,2013-03-30 02:39:00,
2013-03-29 22:44:00,67.3,53.0,30.31,East,90,6.3,10.7,59,0.00,,,0.00,Rainwise IP-100,2013-03-30 02:44:00,
2013-03-29 22:49:00,67.4,52.0,30.31,NNE,22,8.2,11.2,58,0.00,,,0.00,Rainwise IP-100,2013-03-30 02:49:00,
2013-03-29 22:54:00,67.4,52.0,30.31,ENE,67,6.1,11.7,58,0.00,,,0.00,Rainwise IP-100,2013-03-30 02:54:00,
2013-03-29 22:59:00,67.4,53.0,30.32,ENE,67,8.2,11.4,59,0.00,,,0.00,Rainwise IP-100,2013-03-30 02:59:00,
2013-03-29 23:04:00,67.4,53.0,30.31,ENE,67,6.8,12.6,59,0.00,,,0.00,Rainwise IP-100,2013-03-30 03:04:00,
2013-03-29 23:09:00,67.4,52.0,30.31,ENE,67,6.5,11.7,58,0.00,,,0.00,Rainwise IP-100,2013-03-30 03:09:00,
2013-03-29 23:15:00,67.4,52.0,30.31,ENE,67,10.3,11.2,58,0.00,,,0.00,Rainwise IP-100,2013-03-30 03:15:00,
2013-03-29 23:20:00,67.4,53.0,30.31,ENE,67,7.9,12.4,59,0.00,,,0.00,Rainwise IP-100,2013-03-30 03:20:00,
2013-03-29 23:25:00,67.3,53.0,30.31,ENE,67,4.7,12.8,59,0.00,,,0.00,Rainwise IP-100,2013-03-30 03:25:00,
2013-03-29 23:30:00,67.3,52.0,30.31,NE,45,7.9,11.7,58,0.00,,,0.00,Rainwise IP-100,2013-03-30 03:30:00,
2013-03-29 23:35:00,67.3,52.0,30.31,ESE,112,7.7,10.7,58,0.00,,,0.00,Rainwise IP-100,2013-03-30 03:35:00,
2013-03-29 23:40:00,67.3,52.0,30.31,ENE,67,7.2,10.7,57,0.00,,,0.00,Rainwise IP-100,2013-03-30 03:40:00,
2013-03-29 23:45:00,67.4,52.0,30.30,ENE,67,9.3,10.7,57,0.00,,,0.00,Rainwise IP-100,2013-03-30 03:45:00,
2013-03-29 23:50:00,67.3,52.0,30.30,ENE,67,6.5,12.1,58,0.00,,,0.00,Rainwise IP-100,2013-03-30 03:50:00,
2013-03-29 23:56:00,67.3,52.0,30.30,ENE,67,7.9,9.8,58,0.00,,,0.00,Rainwise IP-100,2013-03-30 03:56:00,